Location: Maiden
(35.5760°N, 81.2120°W)
Time: 16:53:00
(UTC-05:00)

OTV 5 (USA 277) - Visible Passes

Search period start: 16 November 2018 00:00
Search period end: 26 November 2018 00:00
Orbit: 339 x 348 km, 54.5° (Epoch: 14 November)

Date Brightness Start Highest point End Pass type
(mag) Time Alt. Az. Time Alt. Az. Time Alt. Az.
17 Nov ? 17:43:28 10° WNW 17:45:50 24° SW 17:48:12 10° S visible
24 Nov ? 06:08:50 10° SSW 06:11:30 35° SE 06:14:10 10° ENE visible
25 Nov ? 06:32:09 10° WSW 06:34:57 46° NW 06:37:44 10° NNE visible
